Flag for Romania Weather past 2 weeks in Timișoara, Romania

Now
75 °F

Passing clouds.


Feels Like: 78 °F
Forecast: 53 / 82 °F
Wind: 3 mph from Southeast

Location: Timisoara Airport

Current Time: Aug 29, 2014 at 7:22:04 PM

Latest Report: Aug 29, 2014 at 7:00 PM


Visibility: N/A

Pressure: 30.09 "Hg

Humidity: 44%

Dew point: 52 °F

Location of TimișoaraLocation

Historic Weather in Timișoara — Graph

°F

Timișoara temperature yesterday

Maximum temperature yesterday: 72 °F (at 3:30 PM)
Minimum temperature yesterday: 50 °F (at 6:30 AM)
Average temperature yesterday: 61 °F

Past Weeks' High & Low Weather Summary

 TemperatureHumidityPressure
High86 °F (Aug 20, 3:30 PM)100% (Aug 15, 12:00 AM)30.15 "Hg (Aug 15, 12:00 AM)
Low46 °F (Aug 29, 6:30 AM)31% (Aug 25, 6:00 PM)29.77 "Hg (Aug 14, 6:00 PM)
Average67 °F77%29.97 "Hg
* Reported Aug 14 6:00 PM — Aug 29 6:00 PM, Timișoara, Weather by CustomWeather, © 2014

Note: Actual official high and low records may vary slightly from our data, if they occured in-between our weather recording intervals... More about our weather records

Advertising

Timișoara weather history for previous 24 hours

 ConditionsComfort  
Time TempWeatherWind HumidityBarometerVisibility
6:00 PM
Aug 29
79 °FPassing clouds.3 mph39%30.09 "HgN/A
5:30 PM77 °FPassing clouds.3 mph39%30.09 "HgN/A
5:00 PM77 °FSunny.3 mph39%30.09 "Hg10 mi
4:30 PM77 °FSunny.3 mph42%30.09 "Hg10 mi
4:00 PM77 °FSunny.3 mph44%30.09 "Hg10 mi
3:30 PM77 °FSunny.3 mph47%30.12 "Hg10 mi
3:00 PM77 °FSunny.3 mph42%30.12 "Hg10 mi
2:30 PM75 °FSunny.2 mph47%30.12 "Hg10 mi
2:00 PM75 °FSunny.3 mph44%30.12 "Hg10 mi
1:30 PM73 °FPassing clouds.5 mph47%30.15 "HgN/A
1:00 PM73 °FSunny.5 mph50%30.15 "Hg10 mi
12:30 PM72 °FSunny.2 mph50%30.15 "Hg10 mi
12:00 PM70 °FSunny.3 mph57%30.15 "Hg10 mi
11:30 AM68 °FSunny.3 mph64%30.15 "Hg10 mi
11:00 AM66 °FPassing clouds.6 mph73%30.15 "HgN/A
10:30 AM64 °FPassing clouds.7 mph73%30.15 "HgN/A
10:00 AM63 °FPassing clouds.9 mph77%30.15 "HgN/A
9:30 AM61 °FPassing clouds.10 mph83%30.15 "HgN/A
9:00 AM59 °FPassing clouds.5 mph94%30.15 "HgN/A
8:30 AM55 °FSunny.2 mph100%30.15 "Hg10 mi
8:00 AM52 °FPassing clouds.5 mph100%30.15 "HgN/A
7:30 AM48 °FPassing clouds.3 mph100%30.15 "HgN/A
7:00 AM46 °FClear.3 mph100%30.12 "Hg10 mi
6:30 AM46 °FClear.5 mph100%30.12 "Hg10 mi
6:00 AM48 °FClear.3 mph94%30.12 "Hg10 mi
5:30 AM48 °FClear.3 mph94%30.12 "Hg10 mi
5:00 AM48 °FClear.3 mph94%30.12 "Hg10 mi
4:30 AM50 °FClear.2 mph94%30.12 "Hg10 mi
4:00 AM50 °FClear.3 mph94%30.12 "Hg10 mi
3:30 AM50 °FClear.3 mph94%30.12 "Hg10 mi
3:00 AM50 °FClear.5 mph94%30.12 "Hg10 mi
2:30 AM50 °FPassing clouds.5 mph94%30.12 "HgN/A
2:00 AM52 °FPassing clouds.3 mph94%30.12 "HgN/A
1:30 AM50 °FClear.3 mph100%30.12 "Hg10 mi
1:00 AM54 °FClear.5 mph94%30.12 "Hg10 mi
12:30 AM54 °FClear.3 mph94%30.12 "Hg10 mi
12:00 AM54 °FClear.2 mph94%30.12 "Hg10 mi
11:30 PM
Aug 28
55 °FClear.3 mph94%30.12 "Hg10 mi
11:00 PM55 °FClear.3 mph94%30.12 "Hg10 mi
10:30 PM57 °FClear.3 mph94%30.12 "Hg10 mi
10:00 PM57 °FClear.3 mph88%30.12 "Hg10 mi
9:30 PM59 °FClear.3 mph94%30.12 "Hg10 mi
9:00 PM61 °FSunny.2 mph77%30.12 "Hg10 mi
8:30 PM63 °FSunny.3 mph73%30.09 "Hg10 mi
8:00 PM66 °FSunny.2 mph64%30.09 "Hg10 mi
7:30 PM70 °FPassing clouds.3 mph53%30.09 "HgN/A
7:00 PM72 °FPassing clouds.5 mph47%30.09 "HgN/A
Weather by CustomWeather, © 2014

See weather overviewHow to use our weather pages